New Roads False River Regiona, LA

7:01 PM CST on November 11, 2019 (GMT -0600)
False River

Weather History for KHZR - October, 2019

Change the Weather History Date:

Monday, October 21, 2019

  Actual Average (KBTR) Record (KBTR)
Temperature  
Mean Temperature 68 °F -  
Max Temperature 75 °F 79 °F 91 °F (1919)
Min Temperature 62 °F 54 °F 36 °F (1976)
Cooling Degree Days 4    
Growing Degree Days 18 (Base 50)    
Moisture  
Dew Point 70 °F    
Average Humidity 97    
Maximum Humidity 100    
Minimum Humidity 94    
Precipitation  
Precipitation 0.55 in - - ()
Sea Level Pressure  
Sea Level Pressure 29.84 in    
Wind  
Wind Speed 6 mph ()    
Max Wind Speed 12 mph    
Max Gust Speed -    
Visibility 9.3 miles    
Events Rain , Thunderstorm    
Averages and records for this station are not official NWS values.
T = Trace of Precipitation, MM = Missing Value Source: Averaged Metar Reports

Daily Weather History Graph

Daily Weather History Graph

Search for Another Location

Airport or City:

Astronomy

Oct. 21, 2019 Rise Set
Actual Time 7:12 AM CDT 6:28 PM CDT
Civil Twilight 6:47 AM CDT 6:52 PM CDT
Nautical Twilight 6:19 AM CDT 7:20 PM CDT
Astronomical Twilight 5:51 AM CDT 7:48 PM CDT
Moon No Moon Rise 2:16 PM CDT (10/21)
Length of Visible Light 12h 04m
Length of Day
11h 15m
Waning Gibbous, 48% of the Moon is Illuminated
Oct 21
Waning Gibbous
Oct 27
New
Nov 4
First Quarter
Nov 12
Full
Nov 19
Last Quarter

Hourly Weather History & Observations

Time (CDT) Temp. Dew Point Humidity Pressure Visibility Wind Dir Wind Speed Gust Speed Precip Events Conditions
12:37 AM 73.4 °F 71.6 °F 94% 29.83 in 10.0 mi SE 9.2 mph - N/A   Scattered Clouds
12:57 AM 73.4 °F 71.6 °F 94% 29.83 in 10.0 mi SSE 8.1 mph - N/A   Scattered Clouds
1:17 AM 73.4 °F 71.6 °F 94% 29.84 in 10.0 mi SSE 5.8 mph - N/A   Scattered Clouds
1:35 AM 73.4 °F 71.6 °F 94% 29.83 in 10.0 mi SSE 9.2 mph - N/A   Scattered Clouds
1:57 AM 73.4 °F 71.6 °F 94% 29.81 in 10.0 mi SE 8.1 mph - N/A   Scattered Clouds
2:36 AM 73.4 °F 71.6 °F 94% 29.80 in 10.0 mi SSE 9.2 mph - N/A   Scattered Clouds
2:57 AM 73.4 °F 71.6 °F 94% 29.80 in 10.0 mi SSE 11.5 mph - N/A   Mostly Cloudy
3:35 AM 73.4 °F 71.6 °F 94% 29.79 in 10.0 mi SE 9.2 mph - N/A   Scattered Clouds
3:55 AM 73.4 °F 71.6 °F 94% 29.79 in 10.0 mi SSE 9.2 mph - N/A   Mostly Cloudy
4:36 AM 73.4 °F 71.6 °F 94% 29.78 in 10.0 mi SE 6.9 mph - N/A   Mostly Cloudy
5:15 AM 73.4 °F 71.6 °F 94% 29.78 in 10.0 mi SE 6.9 mph - N/A   Overcast
5:35 AM 73.4 °F 71.6 °F 94% 29.79 in 10.0 mi SE 5.8 mph - N/A   Overcast
5:55 AM 73.4 °F 71.6 °F 94% 29.80 in 10.0 mi SE 6.9 mph - N/A   Overcast
6:35 AM 73.4 °F 73.4 °F 100% 29.81 in 10.0 mi SSE 6.9 mph - N/A   Overcast
6:55 AM 73.4 °F 73.4 °F 100% 29.82 in 10.0 mi SSE 9.2 mph - N/A   Drizzle
7:15 AM 73.4 °F 73.4 °F 100% 29.82 in 10.0 mi SSE 8.1 mph - N/A   Overcast
7:57 AM 73.4 °F 73.4 °F 100% 29.81 in 10.0 mi SE 9.2 mph - N/A Rain Light Rain
8:15 AM 73.4 °F 73.4 °F 100% 29.80 in 10.0 mi SE 10.4 mph - N/A Rain Light Rain
8:55 AM 73.4 °F 73.4 °F 100% 29.82 in 10.0 mi SSE 6.9 mph - 0.01 in Rain Light Rain
9:15 AM 73.4 °F 73.4 °F 100% 29.83 in 10.0 mi SE 6.9 mph - 0.02 in Rain Light Rain
9:35 AM 75.2 °F 73.4 °F 94% 29.84 in 10.0 mi SSE 4.6 mph - 0.05 in Rain Rain
9:57 AM 75.2 °F 73.4 °F 94% 29.84 in 7.0 mi Calm Calm - 0.09 in Rain , Thunderstorm Rain
10:15 AM 75.2 °F 73.4 °F 94% 29.85 in 7.0 mi SSE 3.5 mph - 0.03 in Rain Rain
11:15 AM 73.4 °F 73.4 °F 100% 29.87 in 5.0 mi SSW 3.5 mph - 0.06 in Rain , Thunderstorm Rain
11:38 AM 73.4 °F 71.6 °F 94% 29.87 in 4.0 mi WSW 5.8 mph - 0.20 in Rain , Thunderstorm Rain
12:18 PM 71.6 °F 69.8 °F 94% 29.87 in 5.0 mi Calm Calm - 0.07 in Rain Rain
12:35 PM 71.6 °F 69.8 °F 94% 29.86 in 4.0 mi Calm Calm - 0.11 in Rain Rain
12:55 PM 71.6 °F 71.6 °F 100% 29.85 in 4.0 mi Calm Calm - 0.16 in Rain , Thunderstorm Rain
1:15 PM 71.6 °F 71.6 °F 100% 29.83 in 7.0 mi Calm Calm - 0.02 in Rain Light Rain
1:55 PM 71.6 °F 71.6 °F 100% 29.79 in 10.0 mi East 3.5 mph - 0.06 in Rain Light Rain
2:15 PM 71.6 °F 71.6 °F 100% 29.79 in 10.0 mi South 3.5 mph - N/A Rain Light Rain
2:35 PM 71.6 °F 71.6 °F 100% 29.78 in 10.0 mi SE 4.6 mph - N/A Rain Light Rain
2:56 PM 73.4 °F 71.6 °F 94% 29.79 in 10.0 mi SSE 4.6 mph - N/A   Overcast
3:15 PM 73.4 °F 71.6 °F 94% 29.80 in 10.0 mi South 5.8 mph - N/A   Overcast
3:35 PM 73.4 °F 71.6 °F 94% 29.81 in 10.0 mi South 8.1 mph - N/A   Overcast
3:55 PM 73.4 °F 71.6 °F 94% 29.81 in 10.0 mi SW 5.8 mph - N/A   Overcast
4:16 PM 73.4 °F 71.6 °F 94% 29.81 in 10.0 mi SSW 5.8 mph - N/A   Overcast
4:35 PM 73.4 °F 71.6 °F 94% 29.81 in 10.0 mi SW 3.5 mph - N/A   Overcast
4:55 PM 69.8 °F 69.8 °F 100% 29.81 in 10.0 mi WNW 4.6 mph - N/A   Overcast
5:15 PM 69.8 °F 69.8 °F 100% 29.80 in 10.0 mi WNW 3.5 mph - N/A   Mostly Cloudy
5:37 PM 69.8 °F 69.8 °F 100% 29.80 in 10.0 mi NW 4.6 mph - N/A   Overcast
5:56 PM 68.0 °F 68.0 °F 100% 29.82 in 10.0 mi NW 5.8 mph - N/A   Overcast
6:16 PM 68.0 °F 68.0 °F 100% 29.84 in 10.0 mi WNW 4.6 mph - N/A   Overcast
6:36 PM 66.2 °F 66.2 °F 100% 29.85 in 10.0 mi NW 4.6 mph - N/A   Overcast
7:16 PM 66.2 °F 66.2 °F 100% 29.88 in 10.0 mi NW 5.8 mph - N/A   Overcast
7:37 PM 66.2 °F 66.2 °F 100% 29.89 in 10.0 mi NW 9.2 mph - N/A   Overcast
7:56 PM 66.2 °F 66.2 °F 100% 29.90 in 10.0 mi NW 5.8 mph - N/A   Overcast
8:55 PM 66.2 °F 64.4 °F 94% 29.94 in 10.0 mi NW 6.9 mph - N/A   Overcast
9:16 PM 66.2 °F 64.4 °F 94% 29.94 in 10.0 mi NW 3.5 mph - N/A   Overcast
9:55 PM 64.4 °F 64.4 °F 100% 29.95 in 10.0 mi Calm Calm - N/A   Overcast
11:17 PM 62.6 °F 62.6 °F 100% 29.98 in 10.0 mi WNW 3.5 mph - N/A   Clear
11:36 PM 62.6 °F 62.6 °F 100% 29.99 in 10.0 mi WNW 3.5 mph - N/A   Clear
11:55 PM 62.6 °F 62.6 °F 100% 29.99 in 10.0 mi WNW 3.5 mph - N/A   Clear